Weather History for Charlevoix, MI

Change the Weather History Date:

Wednesday, August 22, 2012

  Actual Average Record
Temperature  
Mean Temperature 70 °F -  
Max Temperature 80 °F 76 °F 87 °F (2008)
Min Temperature 59 °F 55 °F 50 °F (2004)
Cooling Degree Days 4    
Growing Degree Days 20 (Base 50)    
Moisture  
Dew Point 54 °F    
Average Humidity 60    
Maximum Humidity 91    
Minimum Humidity 32    
Precipitation  
Precipitation 0.00 in - - ()
Sea Level Pressure  
Sea Level Pressure 30.06 in    
Wind  
Wind Speed 7 mph (SW)    
Max Wind Speed 17 mph    
Max Gust Speed 28 mph    
Visibility 10 miles    
Events      
Averages and records for this station are not official NWS values.
T = Trace of Precipitation, MM = Missing Value Source: NWS Daily Summary

Daily Weather History Graph

Daily Weather History Graph

Search for Another Location

Airport:

Trip Planner

Search our weather history database for the weather conditions in past years. The results will help you decide how hot, cold, wet, or windy it might be!

Date:

Astronomy

Aug. 22, 2012 Rise Set
Actual Time 6:51 AM EDT 8:35 PM EDT
Civil Twilight 6:19 AM EDT 9:06 PM EDT
Nautical Twilight 5:41 AM EDT 9:44 PM EDT
Astronomical Twilight 5:00 AM EDT 10:26 PM EDT
Moon 12:49 PM EDT (8/22) 10:55 PM EDT (8/22)
Length of Visible Light 14h 46m
Length of Day
13h 44m
Waxing Crescent, 29% of the Moon is Illuminated
Aug 22
Waxing Crescent
Aug 24
First Quarter
Aug 31
Full
Sep 8
Last Quarter
Sep 15
New

Hourly Weather History & Observations

Time (EDT) Temp. Dew Point Humidity Pressure Visibility Wind Dir Wind Speed Gust Speed Precip Events Conditions
12:14 AM 62.1 °F 57.2 °F 84% 30.07 in 10.0 mi Calm Calm - N/A   Clear
12:54 AM 60.3 °F 56.7 °F 88% 30.06 in 10.0 mi Calm Calm - N/A   Clear
1:14 AM 59.2 °F 56.1 °F 90% 30.06 in 10.0 mi Calm Calm - N/A   Clear
1:34 AM 59.5 °F 56.8 °F 91% 30.06 in 10.0 mi ESE 3.5 mph - N/A   Clear
1:54 AM 59.4 °F 56.7 °F 91% 30.06 in 10.0 mi ESE 3.5 mph - N/A   Scattered Clouds
2:14 AM 59.7 °F 57.2 °F 91% 30.06 in 10.0 mi ESE 3.5 mph - N/A   Mostly Cloudy
2:34 AM 59.9 °F 57.2 °F 91% 30.05 in 10.0 mi SE 4.6 mph - N/A   Mostly Cloudy
2:54 AM 59.7 °F 57.0 °F 91% 30.05 in 10.0 mi SE 4.6 mph - N/A   Scattered Clouds
3:14 AM 59.4 °F 56.8 °F 91% 30.05 in 10.0 mi SE 4.6 mph - N/A   Scattered Clouds
3:34 AM 60.1 °F 56.5 °F 88% 30.05 in 10.0 mi SE 4.6 mph - N/A   Clear
3:54 AM 60.6 °F 56.5 °F 86% 30.05 in 10.0 mi South 4.6 mph - N/A   Clear
4:14 AM 63.0 °F 57.2 °F 81% 30.05 in 10.0 mi South 8.1 mph - N/A   Clear
4:34 AM 63.0 °F 57.2 °F 81% 30.05 in 10.0 mi SSW 8.1 mph - N/A   Clear
4:54 AM 63.7 °F 57.7 °F 81% 30.05 in 10.0 mi SSW 8.1 mph - N/A   Clear
5:14 AM 63.5 °F 58.1 °F 83% 30.05 in 10.0 mi SSW 6.9 mph - N/A   Clear
5:34 AM 62.8 °F 58.3 °F 85% 30.05 in 10.0 mi SSW 8.1 mph - N/A   Clear
5:54 AM 62.8 °F 58.8 °F 87% 30.05 in 10.0 mi SSW 8.1 mph - N/A   Clear
6:14 AM 63.0 °F 59.2 °F 87% 30.06 in 10.0 mi SSW 5.8 mph - N/A   Clear
6:34 AM 62.8 °F 59.5 °F 89% 30.06 in 10.0 mi SSW 5.8 mph - N/A   Clear
6:54 AM 62.2 °F 59.5 °F 91% 30.07 in 10.0 mi South 3.5 mph - N/A   Clear
7:14 AM 62.2 °F 59.7 °F 91% 30.07 in 10.0 mi Calm Calm - N/A   Clear
7:54 AM 63.9 °F 60.8 °F 90% 30.08 in 10.0 mi South 4.6 mph - N/A   Clear
8:14 AM 65.3 °F 61.2 °F 86% 30.08 in 10.0 mi South 4.6 mph - N/A   Clear
8:35 AM 66.6 °F 61.7 °F 84% 30.08 in 10.0 mi SSW 6.9 mph - N/A   Clear
8:54 AM 68.7 °F 61.9 °F 79% 30.08 in 10.0 mi SW 9.2 mph - N/A   Clear
9:14 AM 70.2 °F 61.7 °F 74% 30.08 in 10.0 mi SW 10.4 mph - N/A   Clear
9:34 AM 71.1 °F 61.3 °F 71% 30.08 in 10.0 mi SW 9.2 mph 16.1 mph N/A   Clear
9:54 AM 72.1 °F 61.3 °F 69% 30.08 in 10.0 mi SW 10.4 mph - N/A   Clear
10:15 AM 73.4 °F 60.1 °F 63% 30.08 in 10.0 mi SW 9.2 mph - N/A   Clear
10:34 AM 74.7 °F 55.9 °F 52% 30.08 in 10.0 mi WSW 12.7 mph 18.4 mph N/A   Clear
10:54 AM 75.7 °F 57.0 °F 52% 30.08 in 10.0 mi WSW 8.1 mph 11.5 mph N/A   Clear
11:15 AM 76.6 °F 57.0 °F 51% 30.08 in 1.8 mi SW 9.2 mph - N/A   Haze
11:34 AM 77.0 °F 55.0 °F 47% 30.09 in 10.0 mi WSW 13.8 mph 18.4 mph N/A   Clear
11:54 AM 77.4 °F 54.5 °F 45% 30.08 in 10.0 mi SW 11.5 mph 16.1 mph N/A   Clear
12:15 PM 77.9 °F 51.6 °F 40% 30.09 in 10.0 mi WSW 13.8 mph - N/A   Clear
12:34 PM 78.1 °F 54.5 °F 44% 30.09 in 10.0 mi SW 11.5 mph 17.3 mph N/A   Clear
12:54 PM 79.5 °F 52.2 °F 38% 30.08 in 10.0 mi SW 16.1 mph 20.7 mph N/A   Clear
1:14 PM 79.7 °F 51.8 °F 38% 30.08 in 10.0 mi WSW 15.0 mph - N/A   Clear
1:34 PM 79.5 °F 51.6 °F 38% 30.07 in 10.0 mi WSW 16.1 mph 20.7 mph N/A   Clear
1:54 PM 79.5 °F 50.9 °F 37% 30.07 in 10.0 mi WSW 16.1 mph 27.6 mph N/A   Clear
2:14 PM 79.2 °F 52.0 °F 39% 30.07 in 10.0 mi WSW 15.0 mph 24.2 mph N/A   Clear
2:34 PM 79.5 °F 51.4 °F 37% 30.07 in 10.0 mi WSW 15.0 mph - N/A   Clear
2:55 PM 79.7 °F 51.8 °F 38% 30.07 in 10.0 mi SW 13.8 mph 20.7 mph N/A   Clear
3:14 PM 79.7 °F 51.8 °F 38% 30.07 in 10.0 mi WSW 12.7 mph 20.7 mph N/A   Clear
3:55 PM 80.4 °F 50.4 °F 35% 30.06 in 10.0 mi SW 16.1 mph 19.6 mph N/A   Clear
4:14 PM 80.2 °F 50.9 °F 36% 30.06 in 10.0 mi WSW 13.8 mph 17.3 mph N/A   Clear
4:34 PM 79.5 °F 50.5 °F 36% 30.06 in 10.0 mi West 15.0 mph 24.2 mph N/A   Clear
4:54 PM 79.3 °F 50.5 °F 36% 30.06 in 10.0 mi SW 13.8 mph 19.6 mph N/A   Clear
5:14 PM 79.7 °F 46.9 °F 32% 30.06 in 10.0 mi WSW 16.1 mph 21.9 mph N/A   Clear
5:35 PM 79.7 °F 47.8 °F 33% 30.06 in 10.0 mi WSW 17.3 mph 24.2 mph N/A   Clear
5:54 PM 78.8 °F 48.0 °F 34% 30.06 in 10.0 mi WSW 16.1 mph 23.0 mph N/A   Clear
6:14 PM 78.3 °F 48.0 °F 34% 30.05 in 10.0 mi WSW 15.0 mph 20.7 mph N/A   Clear
6:35 PM 77.9 °F 48.4 °F 35% 30.05 in 10.0 mi WSW 13.8 mph 19.6 mph N/A   Clear
6:54 PM 77.5 °F 48.4 °F 36% 30.05 in 10.0 mi WSW 12.7 mph 18.4 mph N/A   Clear
7:14 PM 76.5 °F 48.2 °F 37% 30.05 in 10.0 mi SW 10.4 mph 20.7 mph N/A   Clear
7:34 PM 75.4 °F 49.8 °F 41% 30.05 in 10.0 mi SW 6.9 mph - N/A   Clear
7:54 PM 74.3 °F 50.9 °F 44% 30.04 in 10.0 mi SW 6.9 mph - N/A   Clear
8:14 PM 73.0 °F 50.0 °F 44% 30.04 in 10.0 mi SW 5.8 mph - N/A   Clear
8:34 PM 71.4 °F 49.8 °F 46% 30.05 in 10.0 mi SSW 4.6 mph - N/A   Clear
8:54 PM 70.5 °F 49.5 °F 47% 30.05 in 10.0 mi SSW 4.6 mph - N/A   Clear
9:14 PM 69.6 °F 49.1 °F 48% 30.05 in 10.0 mi SSW 5.8 mph - N/A   Clear
9:34 PM 69.4 °F 49.6 °F 49% 30.06 in 10.0 mi SSW 4.6 mph - N/A   Clear
9:54 PM 69.4 °F 50.0 °F 50% 30.06 in 10.0 mi SW 5.8 mph - N/A   Clear
10:14 PM 69.4 °F 50.0 °F 50% 30.06 in 10.0 mi SSW 6.9 mph - N/A   Clear
10:34 PM 69.6 °F 50.4 °F 50% 30.06 in 10.0 mi SW 8.1 mph - N/A   Clear
10:54 PM 69.4 °F 51.1 °F 52% 30.06 in 10.0 mi SSW 6.9 mph - N/A   Clear
11:14 PM 68.2 °F 52.9 °F 58% 30.06 in 10.0 mi SSW 5.8 mph - N/A   Clear
11:34 PM 68.0 °F 52.7 °F 58% 30.06 in 10.0 mi SSW 6.9 mph - N/A   Clear